| time (UTC) | temp C | wind direction | speed KPH | gust KPH | rain 1hr cm | rain 24hr cm | rain mn cm | humidity % | barometer mb |
| 20260507000017 | 18 | 0.0 | 6.4 | 0.00 | 0.18 | 0.18 | 81 | 1008.4 | |
| 20260506233017 | 18 | 293 | 1.6 | 9.7 | 0.00 | 0.18 | 0.18 | 80 | 1008.2 |
| 20260506230017 | 19 | 293 | 3.2 | 11.3 | 0.00 | 0.18 | 0.18 | 80 | 1008.2 |
| 20260506223017 | 18 | 270 | 3.2 | 9.7 | 0.00 | 0.18 | 0.18 | 81 | 1008.0 |
| 20260506220017 | 18 | 270 | 3.2 | 14.5 | 0.00 | 0.18 | 0.18 | 82 | 1007.9 |
| 20260506213017 | 18 | 270 | 4.8 | 16.1 | 0.00 | 0.18 | 0.18 | 82 | 1007.9 |
| 20260506210017 | 18 | 270 | 4.8 | 20.9 | 0.00 | 0.18 | 0.18 | 83 | 1007.7 |
| 20260506203017 | 17 | 270 | 3.2 | 12.9 | 0.00 | 0.18 | 0.18 | 86 | 1007.4 |
| 20260506200037 | 16 | 270 | 3.2 | 12.9 | 0.00 | 0.18 | 0.18 | 88 | 1007.9 |
| 20260506193017 | 16 | 248 | 3.2 | 12.9 | 0.00 | 0.18 | 0.18 | 88 | 1008.2 |
| 20260506190018 | 17 | 248 | 3.2 | 14.5 | 0.00 | 0.18 | 0.18 | 86 | 1008.5 |
| 20260506183017 | 17 | 270 | 3.2 | 14.5 | 0.00 | 0.18 | 0.18 | 86 | 1008.4 |
| 20260506180016 | 17 | 293 | 1.6 | 16.1 | 0.03 | 0.18 | 0.18 | 87 | 1008.5 |
| 20260506173017 | 17 | 270 | 3.2 | 14.5 | 0.05 | 0.18 | 0.18 | 87 | 1008.8 |
| 20260506170017 | 17 | 225 | 3.2 | 6.4 | 0.10 | 0.15 | 0.15 | 86 | 1008.7 |
| 20260506163016 | 17 | 203 | 1.6 | 4.8 | 0.13 | 0.13 | 0.13 | 86 | 1009.5 |
| 20260506160016 | 17 | 225 | 1.6 | 6.4 | 0.05 | 0.05 | 0.05 | 81 | 1010.1 |
| 20260506153016 | 18 | 270 | 3.2 | 9.7 | 0.00 | 0.00 | 0.00 | 76 | 1009.9 |
| 20260506150016 | 19 | 248 | 4.8 | 20.9 | 0.00 | 0.00 | 0.00 | 71 | 1009.9 |
| 20260506143016 | 20 | 248 | 6.4 | 19.3 | 0.00 | 0.00 | 0.00 | 68 | 1010.1 |
| 20260506140016 | 20 | 225 | 4.8 | 12.9 | 0.00 | 0.00 | 0.00 | 69 | 1010.0 |
| 20260506133016 | 20 | 248 | 4.8 | 20.9 | 0.00 | 0.00 | 0.00 | 69 | 1010.2 |
| 20260506130016 | 19 | 248 | 4.8 | 14.5 | 0.00 | 0.00 | 0.00 | 70 | 1010.2 |
| 20260506123016 | 18 | 203 | 3.2 | 14.5 | 0.00 | 0.00 | 0.00 | 72 | 1009.9 |
| 20260506120016 | 18 | 225 | 3.2 | 14.5 | 0.00 | 0.00 | 0.00 | 73 | 1010.2 |
| 20260506113016 | 18 | 203 | 4.8 | 12.9 | 0.00 | 0.00 | 0.00 | 73 | 1010.4 |
| 20260506110016 | 18 | 225 | 4.8 | 14.5 | 0.00 | 0.00 | 0.00 | 74 | 1010.1 |
| 20260506103015 | 17 | 203 | 4.8 | 9.7 | 0.00 | 0.00 | 0.00 | 75 | 1010.1 |
| 20260506100016 | 18 | 203 | 4.8 | 14.5 | 0.00 | 0.00 | 0.00 | 74 | 1009.9 |
| 20260506093015 | 18 | 203 | 4.8 | 16.1 | 0.00 | 0.00 | 0.00 | 74 | 1009.8 |
| 20260506090036 | 18 | 203 | 3.2 | 11.3 | 0.00 | 0.00 | 0.00 | 74 | 1010.1 |
| 20260506083015 | 18 | 225 | 3.2 | 11.3 | 0.00 | 0.00 | 0.00 | 74 | 1010.1 |
| 20260506073017 | 18 | 225 | 3.2 | 11.3 | 0.00 | 0.00 | 0.00 | 72 | 1010.2 |
| 20260506043017 | 20 | 225 | 3.2 | 8.0 | 0.00 | 0.00 | 0.00 | 63 | 1011.0 |
| 20260506040017 | 20 | 225 | 3.2 | 8.0 | 0.00 | 0.00 | 0.00 | 62 | 1011.1 |
| 20260506033015 | 20 | 203 | 3.2 | 8.0 | 0.00 | 0.00 | 0.00 | 61 | 1011.0 |
| 20260506030017 | 21 | 225 | 3.2 | 9.7 | 0.00 | 0.00 | 0.00 | 59 | 1011.0 |
| 20260506023015 | 21 | 203 | 4.8 | 14.5 | 0.00 | 0.00 | 0.00 | 58 | 1010.9 |
| 20260506020015 | 21 | 203 | 6.4 | 16.1 | 0.00 | 0.00 | 0.00 | 56 | 1010.9 |
| 20260506013017 | 22 | 203 | 4.8 | 12.9 | 0.00 | 0.00 | 0.00 | 51 | 1010.5 |
| 20260506010017 | 23 | 203 | 4.8 | 17.7 | 0.00 | 0.00 | 0.00 | 45 | 1010.3 |
| 20260506003018 | 23 | 203 | 3.2 | 11.3 | 0.00 | 0.00 | 0.00 | 45 | 1009.8 |